#timestamp,LO_Frequency,Hit,StdDev 
1589155215.2,286047000.0,N
1589155235.0,286046998.8,N
1589155235.9,286046998.8,N
1589155255.8,286047001.2,N
1589155275.6,286046999.5,N
1589155295.4,286046996.6,N
1589155315.3,286046999.0,N
1589155335.1,286046996.6,N
1589155355.9,286046997.2,N
1589155375.7,286046999.5,N
1589155395.5,286046998.7,N
1589155415.4,286047000.8,N
1589155435.2,286046997.1,N
1589155455.0,286047000.5,N
1589155456.0,286047000.5,N
1589155475.8,286047000.0,N
1589155495.6,286046999.1,N
1589155515.5,286046999.6,N
1589155535.3,286046997.8,N
1589155555.1,286046996.1,N
1589155575.9,286046995.7,N
1589155595.7,286046996.8,N
1589155615.6,286046997.0,N
1589155635.4,286046998.7,N
1589155655.2,286046997.5,N
1589155675.1,286046998.8,N
1589155676.0,286046998.8,N
1589155695.8,286047001.1,N
1589155715.6,286047000.7,N
1589155735.5,286046999.6,N
1589155755.3,286046998.2,N
1589155775.2,286047002.6,N
1589155795.9,286046999.8,N
1589155815.7,286047003.6,N
1589155835.6,286047005.9,Y
1589155855.4,286047005.3,P
1589155875.3,286047005.6,N
1589155895.1,286047003.9,N
1589155896.0,286047003.9,N
1589155915.8,286047002.5,N
1589155935.7,286047002.0,N
1589155955.5,286047003.8,N
1589155975.3,286047001.7,N
1589155995.2,286047003.0,N
1589156015.0,286047005.9,Y
1589156015.9,286047005.9,P
1589156035.8,286047001.5,N
1589156055.6,286047000.2,N
1589156075.4,286046999.1,N
1589156095.3,286047000.7,N
1589156115.1,286047000.8,N
1589156135.9,286047002.3,N
1589156155.7,286046998.8,N
1589156175.5,286047000.4,N
1589156195.4,286046998.9,N
1589156215.2,286046996.6,N
1589156235.0,286046999.6,N
1589156236.0,286046999.6,N
1589156255.8,286046997.1,N
1589156275.6,286046995.1,N
1589156295.5,286046995.2,N
1589156315.3,286046995.5,N
1589156335.1,286046998.9,N
1589156355.9,286046998.9,N
1589156375.7,286046999.5,N
1589156395.6,286046998.9,N
1589156415.4,286046998.9,N
1589156435.2,286046998.6,N
1589156455.1,286047002.7,N
1589156456.0,286047002.7,N
1589156475.8,286046998.3,N
1589156495.6,286046998.5,N
1589156515.5,286046999.5,N
1589156535.3,286046999.4,N
1589156555.2,286046996.7,N
1589156575.9,286046997.7,N
1589156595.7,286046997.0,N
1589156615.6,286046996.7,N
1589156635.4,286046997.0,N
1589156655.3,286047000.2,N
1589156675.1,286047003.3,N
1589156676.0,286047003.3,N
1589156695.8,286047005.3,N
1589156715.7,286047004.9,N
1589156735.5,286047007.0,N
1589156755.3,286047006.5,N
1589156775.2,286047009.1,N
1589156795.0,286047010.4,N
1589156795.9,286047010.4,N
1589156815.8,286047010.8,N
1589156835.6,286047008.1,N
1589156855.4,286047009.0,N
1589156875.3,286047009.0,N
1589156895.1,286047010.4,N
1589156915.9,286047009.9,N
1589156935.7,286047011.1,N
1589156955.5,286047009.3,N
1589156975.4,286047011.0,N
1589156995.2,286047013.5,N
1589157015.0,286047015.2,N
1589157016.0,286047015.2,N
1589157035.8,286047014.9,N
1589157055.6,286047015.3,N
1589157075.5,286047014.3,N
1589157095.3,286047015.0,N
1589157115.1,286047014.9,N
1589157135.9,286047014.9,N
1589157155.7,286047012.9,N
1589157175.6,286047011.2,N
1589157195.4,286047012.0,N
1589157215.2,286047013.9,Y
1589157235.1,286047000.4,P
1589157236.0,286047000.4,N
1589157255.8,286047001.8,N
1589157275.7,286047001.5,N
1589157295.5,286047001.8,N
1589157315.3,286047000.6,N
1589157335.2,286047000.9,N
1589157355.0,286047000.5,N
1589157355.9,286047000.5,N
1589157375.7,286047002.0,N
1589157395.6,286047000.3,N
1589157415.4,286047002.1,N
1589157435.3,286047001.4,N
1589157455.1,286047002.1,N
1589157456.0,286047002.1,N
1589157475.8,286047000.4,N
1589157495.7,286047000.2,N
1589157515.5,286046998.9,N
1589157535.3,286046996.9,N
1589157555.2,286047000.3,N
1589157575.0,286047002.6,N
1589157575.9,286047002.6,N
1589157595.8,286047002.4,N
1589157615.6,286046999.8,N
1589157635.4,286047001.1,N
1589157655.3,286046998.7,N
1589157675.1,286046999.9,N
1589157695.9,286047000.6,N
1589157715.7,286047000.1,N
1589157735.5,286047002.3,N
1589157755.4,286047002.5,N
1589157775.2,286047002.0,N
1589157795.0,286047001.5,N
1589157796.0,286047001.5,N
1589157815.8,286047004.1,Y
1589157835.6,286047001.4,P
1589157855.5,286047003.6,P
1589157875.3,286047004.3,P
1589157895.1,286047004.2,N
1589157915.9,286047002.2,N
1589157935.7,286047000.2,N
1589157955.6,286046999.8,N
1589157975.4,286047000.9,N
1589157995.2,286046998.7,N
1589158015.1,286046999.1,N
1589158016.0,286046999.1,N
1589158035.8,286046999.1,N
1589158055.7,286046998.9,N
1589158075.5,286046999.4,N
1589158095.3,286046998.5,N
1589158115.2,286046999.4,N
1589158135.9,286046999.5,N
1589158155.7,286046996.0,N
1589158175.6,286046994.8,N
1589158195.4,286046993.8,N
1589158215.3,286046995.1,N
1589158235.1,286046997.9,N
1589158236.0,286046997.9,N
1589158255.8,286046996.9,N
1589158275.7,286046995.9,N
1589158295.5,286046997.1,N
1589158315.3,286046997.3,N
1589158335.2,286046997.9,N
1589158355.0,286046993.6,N
1589158355.9,286046993.6,N
1589158375.8,286046993.9,N
1589158395.6,286046997.6,N
1589158415.4,286046996.7,N
1589158435.3,286046999.3,N
1589158455.1,286046998.6,N
1589158475.9,286046998.3,N
1589158495.7,286046999.0,N
1589158515.5,286046998.8,N
1589158535.4,286047000.9,N
1589158555.2,286046998.1,N
1589158575.0,286047000.0,N
1589158576.0,286047000.0,N
1589158595.8,286046996.8,N
1589158615.6,286046996.0,N
1589158635.5,286046994.2,N
1589158655.3,286046995.7,N
1589158675.1,286046994.9,N
1589158695.9,286046995.3,N
1589158715.7,286046997.4,N
1589158735.6,286046999.2,N
1589158755.4,286046993.7,Y
1589158775.2,286046994.9,P
1589158795.1,286046995.3,P
1589158796.0,286046995.3,P
